Weather History for Medford, OR

Change the Weather History Date:

Thursday, July 31, 2014

  Actual Average Record
Temperature  
Mean Temperature 85 °F 76 °F  
Max Temperature 102 °F 93 °F 105 °F (1977)
Min Temperature 67 °F 59 °F 43 °F (1975)
Degree Days  
Heating Degree Days 0 0  
Month to date heating degree days 0 1  
Since 1 June heating degree days 22 60  
Since 1 July heating degree days 0 6  
Cooling Degree Days 20 11  
Month to date cooling degree days 471 286  
Year to date cooling degree days 638 432  
Since 1 June cooling degree days 582 394  
Growing Degree Days 34 (Base 50)    
Moisture  
Dew Point 54 °F    
Average Humidity 43    
Maximum Humidity 68    
Minimum Humidity 17    
Precipitation  
Precipitation 0.00 in 0.01 in 0.14 in (1964)
Month to date precipitation 0.10 0.28  
Year to date precipitation 10.76 9.74  
Snow  
Snow 0.00 in 0.00 in - ()
Month to date snowfall 0.0 0.0  
Since 1 July snowfall 0.0 0.0  
Snow Depth 0.00 in    
Sea Level Pressure  
Sea Level Pressure 29.92 in    
Wind  
Wind Speed 5 mph (NW)    
Max Wind Speed 18 mph    
Max Gust Speed 23 mph    
Visibility 10 miles    
Events      
T = Trace of Precipitation, MM = Missing Value Source: NWS Daily Summary

Daily Weather History Graph

Daily Weather History Graph

Search for Another Location

Airport:

Trip Planner

Search our weather history database for the weather conditions in past years. The results will help you decide how hot, cold, wet, or windy it might be!

Date:

Astronomy

Jul. 31, 2014 Rise Set
Actual Time 6:03 AM PDT 8:32 PM PDT
Civil Twilight 5:31 AM PDT 9:03 PM PDT
Nautical Twilight 4:51 AM PDT 9:43 PM PDT
Astronomical Twilight 4:06 AM PDT 10:27 PM PDT
Moon 10:42 AM PDT (7/31) 10:40 PM PDT (7/31)
Length of Visible Light 15h 32m
Length of Day
14h 28m
Waxing Crescent, 20% of the Moon is Illuminated
Jul 31
Waxing Crescent
Aug 3
First Quarter
Aug 10
Full
Aug 17
Last Quarter
Aug 25
New

Hourly Weather History & Observations

Time (PDT) Temp. Heat Index Dew Point Humidity Pressure Visibility Wind Dir Wind Speed Gust Speed Precip Events Conditions
12:53 AM 75.9 °F - 57.0 °F 52% 29.96 in 10.0 mi SE 5.8 mph - N/A   Clear
1:53 AM 73.0 °F - 57.9 °F 59% 29.96 in 10.0 mi South 4.6 mph - N/A   Clear
2:53 AM 72.0 °F - 57.9 °F 61% 29.96 in 10.0 mi Calm Calm - N/A   Clear
3:53 AM 71.1 °F - 57.0 °F 61% 29.96 in 10.0 mi South 3.5 mph - N/A   Clear
4:53 AM 69.1 °F - 57.9 °F 68% 29.97 in 10.0 mi WSW 3.5 mph - N/A   Clear
5:53 AM 68.0 °F - 57.0 °F 68% 29.97 in 10.0 mi Calm Calm - N/A   Partly Cloudy
6:53 AM 68.0 °F - 57.0 °F 68% 29.98 in 10.0 mi Calm Calm - N/A   Scattered Clouds
7:53 AM 71.1 °F - 57.0 °F 61% 29.99 in 10.0 mi Calm Calm - N/A   Scattered Clouds
8:53 AM 73.0 °F - 55.9 °F 55% 29.99 in 10.0 mi Calm Calm - N/A   Scattered Clouds
9:53 AM 78.1 °F - 55.9 °F 46% 29.98 in 10.0 mi Calm Calm - N/A   Scattered Clouds
10:53 AM 82.0 °F 81.6 °F 55.9 °F 41% 29.96 in 10.0 mi Calm Calm - N/A   Partly Cloudy
11:53 AM 86.0 °F 84.2 °F 54.0 °F 33% 29.94 in 10.0 mi Variable 3.5 mph - N/A   Partly Cloudy
12:53 PM 91.9 °F - 51.1 °F 25% 29.91 in 10.0 mi West 5.8 mph - N/A   Scattered Clouds
1:53 PM 95.0 °F - 51.1 °F 22% 29.88 in 10.0 mi Calm Calm - N/A   Scattered Clouds
2:53 PM 100.4 °F - 48.2 °F 17% 29.89 in 10.0 mi West 10.4 mph - N/A   Scattered Clouds
3:53 PM 100.0 °F - 48.9 °F 18% 29.83 in 10.0 mi West 13.8 mph - N/A   Scattered Clouds
4:53 PM 100.9 °F - 50.0 °F 18% 29.82 in 10.0 mi West 12.7 mph - N/A   Scattered Clouds
5:53 PM 100.0 °F - 48.0 °F 17% 29.82 in 10.0 mi NW 10.4 mph - N/A   Scattered Clouds
6:53 PM 96.8 °F - 50.0 °F 20% 29.89 in 10.0 mi North 13.8 mph - N/A   Scattered Clouds
7:53 PM 91.9 °F - 51.1 °F 25% 29.86 in 10.0 mi North 9.2 mph - N/A   Scattered Clouds
8:53 PM 86.0 °F 84.0 °F 53.1 °F 32% 29.89 in 10.0 mi North 8.1 mph - N/A   Scattered Clouds
9:53 PM 82.0 °F 81.3 °F 54.0 °F 38% 29.92 in 10.0 mi NE 6.9 mph - N/A   Clear
10:53 PM 78.1 °F - 54.0 °F 43% 29.93 in 10.0 mi ENE 5.8 mph - N/A   Clear
11:53 PM 78.1 °F - 52.0 °F 40% 29.93 in 10.0 mi NNE 3.5 mph - N/A   Clear